Location: Dal�� Lhota
(48.7500°N, 14.0167°E)
Time: 02:06:29
(UTC+00:00)

Resurs 1-3 - Pass Details

Date: 24 September 2020
Orbit: 631 x 632 km, 97.9° (Epoch: 29 October)

Event Time Altitude Azimuth Distance (km) Brightness Sun altitude
Exits shadow 18:53:22 46° 113° (ESE) 848 3.8 -19.6°
Maximum altitude 18:54:13 55° 71° (ENE) 765 3.7 -19.7°
Drops below altitude 10° 18:58:31 10° 354° (N) 2,026 6.6 -20.4°
Sets 19:00:45 0° 351° (N) 2,938 7.5 -20.7°
